• In Hungary
  • List of Countries
  • For 7 days
  • Water Temperature
  • Satellite Maps
  • Weather Map
  • News
  • Weather Widgets
  • user-avatar
    Login

    Hourly Weather Baranivka

    Today, 20 July, Friday

    Time Temperature Precipitation Wind Pressure Humidity
    00:00 +18°C° 0 mm 4 mps 726 mmHg 95%
    01:00 +18°C° 0 mm 4 mps 726 mmHg 96%
    02:00 +18°C° 0 mm 4 mps 726 mmHg 96%
    03:00 +16°C° 0 mm 5 mps 726 mmHg 96%
    04:00 +16°C° 0 mm 5 mps 726 mmHg 96%
    05:00 +16°C° 0 mm 5 mps 726 mmHg 97%
    06:00 +17°C° 0 mm 5 mps 726 mmHg 95%
    07:00 +17°C° 0 mm 5 mps 726 mmHg 93%
    08:00 +19°C° 0 mm 6 mps 726 mmHg 91%
    09:00 +20°C° 0.1 mm 6 mps 726 mmHg 89%
    10:00 +20°C° 0.1 mm 6 mps 726 mmHg 86%
    11:00 +21°C° 0.1 mm 6 mps 726 mmHg 84%
    12:00 +22°C° 0.3 mm 6 mps 726 mmHg 81%
    13:00 +23°C° 0.3 mm 6 mps 726 mmHg 79%
    14:00 +24°C° 0.3 mm 7 mps 726 mmHg 76%
    15:00 +23°C° 0.4 mm 6 mps 726 mmHg 78%
    16:00 +23°C° 0.4 mm 6 mps 726 mmHg 79%
    17:00 +23°C° 0.4 mm 6 mps 726 mmHg 80%
    18:00 +22°C° 0.2 mm 5 mps 726 mmHg 83%
    19:00 +21°C° 0.2 mm 4 mps 726 mmHg 87%
    20:00 +20°C° 0.2 mm 4 mps 726 mmHg 90%
    21:00 +19°C° 0.1 mm 3 mps 727 mmHg 91%
    22:00 +19°C° 0.1 mm 3 mps 727 mmHg 92%
    23:00 +18°C° 0.1 mm 3 mps 727 mmHg 93%

    Tomorrow, 21 July, Saturday

    Time Temperature Precipitation Wind Pressure Humidity
    00:00 +18°C° 0 mm 3 mps 727 mmHg 94%
    01:00 +18°C° 0 mm 3 mps 727 mmHg 94%
    02:00 +17°C° 0 mm 4 mps 727 mmHg 94%
    03:00 +17°C° 0 mm 3 mps 727 mmHg 95%
    04:00 +17°C° 0 mm 3 mps 727 mmHg 95%
    05:00 +16°C° 0 mm 3 mps 727 mmHg 96%
    06:00 +18°C° 0 mm 4 mps 727 mmHg 93%
    07:00 +19°C° 0 mm 4 mps 728 mmHg 91%
    08:00 +20°C° 0 mm 4 mps 728 mmHg 88%
    09:00 +21°C° 0.1 mm 4 mps 728 mmHg 83%
    10:00 +22°C° 0.1 mm 4 mps 728 mmHg 78%
    11:00 +25°C° 0.1 mm 4 mps 728 mmHg 73%
    12:00 +25°C° 0.2 mm 4 mps 728 mmHg 72%
    13:00 +26°C° 0.2 mm 4 mps 728 mmHg 70%
    14:00 +26°C° 0.2 mm 4 mps 728 mmHg 68%
    15:00 +26°C° 0.1 mm 4 mps 728 mmHg 69%
    16:00 +26°C° 0.1 mm 4 mps 728 mmHg 69%
    17:00 +26°C° 0.1 mm 4 mps 728 mmHg 70%
    18:00 +24°C° 0.2 mm 3 mps 728 mmHg 75%
    19:00 +23°C° 0.2 mm 2 mps 728 mmHg 81%
    20:00 +21°C° 0.2 mm 2 mps 728 mmHg 86%
    21:00 +20°C° 0 mm 2 mps 728 mmHg 88%
    22:00 +19°C° 0 mm 2 mps 728 mmHg 89%
    23:00 +18°C° 0 mm 2 mps 728 mmHg 91%

    Day after tomorrow, 22 July, Sunday

    Time Temperature Precipitation Wind Pressure Humidity
    00:00 +18°C° 0 mm 2 mps 728 mmHg 91%
    01:00 +17°C° 0 mm 2 mps 728 mmHg 92%
    02:00 +17°C° 0 mm 2 mps 728 mmHg 92%
    03:00 +16°C° 0 mm 2 mps 728 mmHg 92%
    04:00 +16°C° 0 mm 2 mps 728 mmHg 93%
    05:00 +16°C° 0 mm 1 mps 728 mmHg 93%
    06:00 +18°C° 0 mm 1 mps 728 mmHg 89%
    07:00 +20°C° 0 mm 1 mps 728 mmHg 84%
    08:00 +21°C° 0 mm 2 mps 728 mmHg 80%
    09:00 +23°C° 0.1 mm 2 mps 728 mmHg 75%
    10:00 +24°C° 0.1 mm 2 mps 728 mmHg 70%
    11:00 +25°C° 0.1 mm 2 mps 728 mmHg 65%
    12:00 +26°C° 0.1 mm 2 mps 728 mmHg 63%
    13:00 +26°C° 0.1 mm 2 mps 727 mmHg 60%
    14:00 +27°C° 0.1 mm 2 mps 727 mmHg 58%
    15:00 +27°C° 0 mm 2 mps 727 mmHg 59%
    16:00 +27°C° 0 mm 2 mps 727 mmHg 61%
    17:00 +27°C° 0 mm 2 mps 727 mmHg 62%
    18:00 +25°C° 0.1 mm 2 mps 727 mmHg 68%
    19:00 +24°C° 0.1 mm 1 mps 727 mmHg 74%
    20:00 +22°C° 0.1 mm 1 mps 727 mmHg 79%
    21:00 +21°C° 0 mm 1 mps 727 mmHg 82%
    22:00 +20°C° 0 mm 1 mps 727 mmHg 84%
    23:00 +19°C° 0 mm 1 mps 727 mmHg 86%

    23 July, Monday

    Time Temperature Precipitation Wind Pressure Humidity
    00:00 +19°C° 0 mm 1 mps 727 mmHg 87%
    01:00 +19°C° 0 mm 1 mps 726 mmHg 87%
    02:00 +18°C° 0 mm 1 mps 726 mmHg 88%
    03:00 +18°C° 0 mm 1 mps 726 mmHg 88%
    04:00 +18°C° 0 mm 1 mps 726 mmHg 89%
    05:00 +15°C° 0 mm 0 mps 726 mmHg 90%
    06:00 +19°C° 0 mm 1 mps 727 mmHg 86%
    07:00 +21°C° 0 mm 1 mps 727 mmHg 82%
    08:00 +22°C° 0 mm 1 mps 727 mmHg 78%
    09:00 +24°C° 0 mm 1 mps 727 mmHg 73%
    10:00 +25°C° 0 mm 1 mps 727 mmHg 69%
    11:00 +26°C° 0 mm 2 mps 727 mmHg 64%
    12:00 +26°C° 0.1 mm 2 mps 726 mmHg 62%
    13:00 +27°C° 0.1 mm 2 mps 726 mmHg 59%
    14:00 +27°C° 0.1 mm 2 mps 726 mmHg 57%
    15:00 +27°C° 0.2 mm 2 mps 726 mmHg 59%
    16:00 +27°C° 0.2 mm 3 mps 726 mmHg 61%
    17:00 +27°C° 0.2 mm 3 mps 726 mmHg 63%
    18:00 +25°C° 0.1 mm 2 mps 726 mmHg 68%
    19:00 +24°C° 0.1 mm 2 mps 726 mmHg 73%
    20:00 +22°C° 0.1 mm 1 mps 726 mmHg 79%
    21:00 +21°C° 0 mm 1 mps 726 mmHg 80%
    22:00 +21°C° 0 mm 1 mps 726 mmHg 82%
    23:00 +19°C° 0 mm 2 mps 726 mmHg 84%

    24 July, Tuesday

    Time Temperature Precipitation Wind Pressure Humidity
    00:00 +20°C° 0 mm 1 mps 726 mmHg 86%
    01:00 +19°C° 0 mm 1 mps 726 mmHg 88%
    02:00 +19°C° 0 mm 1 mps 726 mmHg 89%
    03:00 +18°C° 0 mm 1 mps 726 mmHg 90%
    04:00 +18°C° 0 mm 1 mps 727 mmHg 90%
    05:00 +18°C° 0 mm 1 mps 727 mmHg 90%
    06:00 +19°C° 0 mm 1 mps 727 mmHg 87%
    07:00 +21°C° 0 mm 1 mps 727 mmHg 83%
    08:00 +21°C° 0 mm 2 mps 727 mmHg 80%
    09:00 +23°C° 0.1 mm 2 mps 727 mmHg 76%
    10:00 +24°C° 0.1 mm 2 mps 727 mmHg 72%
    11:00 +25°C° 0.1 mm 2 mps 727 mmHg 68%
    12:00 +25°C° 0.6 mm 2 mps 727 mmHg 67%
    13:00 +26°C° 0.6 mm 2 mps 727 mmHg 66%
    14:00 +26°C° 0.6 mm 2 mps 727 mmHg 66%
    15:00 +26°C° 0.6 mm 2 mps 727 mmHg 67%
    16:00 +26°C° 0.6 mm 2 mps 727 mmHg 68%
    17:00 +26°C° 0.6 mm 2 mps 727 mmHg 69%
    18:00 +24°C° 0.1 mm 2 mps 727 mmHg 73%
    19:00 +23°C° 0.1 mm 1 mps 727 mmHg 77%
    20:00 +22°C° 0.1 mm 1 mps 727 mmHg 81%
    21:00 +21°C° 0 mm 1 mps 727 mmHg 82%
    22:00 +20°C° 0 mm 1 mps 727 mmHg 83%
    23:00 +20°C° 0 mm 1 mps 727 mmHg 83%

    25 July, Wednesday

    Time Temperature Precipitation Wind Pressure Humidity
    00:00 +19°C° 0 mm 1 mps 727 mmHg 84%
    01:00 +19°C° 0 mm 1 mps 727 mmHg 85%
    02:00 +18°C° 0 mm 1 mps 727 mmHg 85%
    03:00 +19°C° 0 mm 1 mps 727 mmHg 86%
    04:00 +19°C° 0 mm 1 mps 727 mmHg 86%
    05:00 +19°C° 0 mm 1 mps 727 mmHg 86%
    06:00 +19°C° 0 mm 1 mps 728 mmHg 85%
    07:00 +20°C° 0 mm 1 mps 728 mmHg 84%
    08:00 +20°C° 0 mm 2 mps 728 mmHg 84%
    09:00 +21°C° 0 mm 2 mps 728 mmHg 80%
    10:00 +23°C° 0 mm 2 mps 728 mmHg 75%
    11:00 +24°C° 0 mm 2 mps 728 mmHg 71%
    12:00 +24°C° 0.4 mm 2 mps 728 mmHg 73%
    13:00 +24°C° 0.4 mm 2 mps 728 mmHg 74%
    14:00 +24°C° 0.4 mm 2 mps 728 mmHg 76%
    15:00 +24°C° 0.5 mm 2 mps 728 mmHg 79%
    16:00 +23°C° 0.5 mm 1 mps 727 mmHg 81%
    17:00 +23°C° 0.5 mm 1 mps 727 mmHg 84%
    18:00 +21°C° 0.4 mm 2 mps 727 mmHg 86%
    19:00 +21°C° 0.4 mm 2 mps 727 mmHg 88%
    20:00 +20°C° 0.4 mm 2 mps 727 mmHg 90%
    21:00 +20°C° 0.7 mm 2 mps 727 mmHg 90%
    22:00 +19°C° 0.7 mm 2 mps 727 mmHg 91%
    23:00 +19°C° 0.7 mm 2 mps 727 mmHg 92%
    Show more